Regional Weather Roundup
Issued by NWS

Home | Current Version | Previous Version | Text Only | Print | Product List | Glossary Off
Versions: 1 2 3 4 5 6 7 8 9 10 11 12 13 14 15 16 17 18 19 20 21 22 23 24 25 26 27 28 29 30 31 32 33 34 35 36 37 38 39 40 41 42 43 44 45 46 47 48 49 50

000
ASUS43 KMPX 051801
RWRMN
WEATHER ROUNDUP FOR MINNESOTA
NATIONAL WEATHER SERVICE TWIN CITIES/CHANHASSEN MN
100 PM CDT TUE MAY 05 2015


NOTE: "FAIR" INDICATES FEW OR NO CLOUDS BELOW 12,000 FEET WITH NO
SIGNIFICANT WEATHER AND/OR OBSTRUCTIONS TO VISIBILITY. N/A MEANS
CURRENT SKY AND/OR WEATHER CONDITIONS ARE NOT AVAILABLE.

MNZ060>063-068>070-051900-
   Twin Cities Metro

CITY           SKY/WX    TMP DP  RH WIND       PRES   REMARKS
TWIN CITIES    MOSUNNY   70  45  40 E16G25    30.17F
6HR MIN TEMP:  53; 6HR MAX TEMP:  70;

ST PAUL        SUNNY     71  46  40 SE14G22   30.18F
CRYSTAL        SUNNY     72  45  37 E10G21    30.16F
BLAINE         MOSUNNY   72  43  35 E15G22    30.17F
LAKEVILLE      MOSUNNY   64  50  59 SE14G21   30.18S
EDEN PRAIRIE   CLOUDY    69  48  47 SE20G26   30.16F
6HR MIN TEMP:  52; 6HR MAX TEMP:  69;

SOUTH ST PAUL  MOSUNNY   69  40  35 SE13G21   30.18F
LAKE ELMO      FAIR      70  43  37 SE13G18   30.20S
$$
MNZ001>005-007-008-013>017-022>024-027-028-051900-
   Northwest Minnesota

CITY           SKY/WX    TMP DP  RH WIND       PRES   REMARKS
BEMIDJI        SUNNY     69  24  18 E17       30.16F
HALLOCK        SUNNY     73   9   8 S16G28    30.09F
ROSEAU         SUNNY     73  16  11 S13G25    30.13F
WARROAD        SUNNY     72  32  23 SE10G24   30.14F
THIEF RVR FALL SUNNY     70  23  17 S14G21    30.13F
CROOKSTON      MOSUNNY   72  21  15 S22       30.12F
FOSSTON        SUNNY     72  19  14 SE10G18   30.14F
DETROIT LAKES  SUNNY     70  27  19 SE15      30.14F
MOORHEAD       SUNNY     73  21  14 SE15G22   30.10F
PARK RAPIDS    SUNNY     71  21  15 SE13G23   30.15F
MAHNOMEN       FAIR      69  21  16 SE15      30.13F
$$
MNZ006-009>011-018-025>026-051900-
   North Central Minnesota

CITY           SKY/WX    TMP DP  RH WIND       PRES   REMARKS
BAUDETTE       SUNNY     71  25  17 S15G22    30.16F
FLAG ISLAND    SUNNY     63  32  31 SE6       30.15F
INTL FALLS     SUNNY     71  23  16 SE12G20   30.18F
6HR MIN TEMP:  36; 6HR MAX TEMP:  71;

WASKISH        SUNNY     72  30  21 SE6G17    30.16F
BIG FORK       SUNNY     72  25  17 S10G22    30.19F
LONGVILLE      SUNNY     72  25  17 SE14G21   30.17F
GRAND RAPIDS   SUNNY     68  23  18 S17       30.20F
CRANE LAKE     SUNNY     68  18  14 SE9       30.22F
COOK           SUNNY     68  25  19 SE13G21   30.22S
WALKER         FAIR      68  23  18 SE7       30.17F
$$
MNZ012-019>021-037-051900-
   Northeast Minnesota

CITY           SKY/WX    TMP DP  RH WIND       PRES   REMARKS
DULUTH         SUNNY     68  27  21 E15       30.23F
6HR MIN TEMP:  45; 6HR MAX TEMP:  68;

ELY            SUNNY     68  19  15 SE15      30.22F
HIBBING        SUNNY     70  20  15 SE13G23   30.21F
EVELETH        SUNNY     70  23  17 S16       30.23F
DULUTH HARBOR    N/A     46  37  71 E7        30.25F
TWO HARBORS    SUNNY     70  37  30 E10       30.23F
SILVER BAY     SUNNY     66  27  22 E10       30.25S
GRAND MARAIS     N/A     52  30  43 CALM      30.28F
G MARAIS ARPRT SUNNY     63  21  20 S13       30.29F
$$
MNZ029>031-032-039>041-046>048-054>057-064-051900-
   West Central Minnesota

CITY           SKY/WX    TMP DP  RH WIND       PRES   REMARKS
FERGUS FALLS   SUNNY     72  30  21 SE16G24   30.11F
WHEATON        SUNNY     73  32  21 E20G26    30.09F
MORRIS         SUNNY     75  37  25 SE16G24   30.09F
ALEXANDRIA     SUNNY     71  35  26 E16G25    30.14F
ELBOW LAKE     FAIR      70  32  24 SE14G23   30.11F
WADENA         SUNNY     70  34  26 SE9G22    30.14F
GLENWOOD       SUNNY     72  41  33 SE18G24   30.14F
APPLETON       MOSUNNY   77  37  24 SE18      30.08F
BENSON         SUNNY     73  36  25 SE13G20   30.10F
ORTONVILLE     SUNNY     73  36  25 SE13G22   30.08F
MADISON        PTSUNNY   73  41  31 SE20G30   30.08F
WILLMAR        FAIR      75  50  41 SE21G26   30.12F
$$
MNZ033>034-036-042>043-049>051-058-059-051900-
   Central Minnesota

CITY           SKY/WX    TMP DP  RH WIND       PRES   REMARKS
ST CLOUD       SUNNY     70  43  37 E13G22    30.15F
6HR MIN TEMP:  49; 6HR MAX TEMP:  71;

SAUK CENTRE    FAIR      70  42  36 E16G24    30.14F
PAYNESVILLE    SUNNY     68  47  46 E14G20    30.14F
AITKIN         SUNNY     72  23  16 SE12G18   30.17F
PINE RIVER     SUNNY     70  36  28 E18       30.20F
BRAINERD       SUNNY     68  35  29 E9G21     30.18F
STAPLES        SUNNY     70  30  23 SE16G23   30.15F
LONG PRAIRIE   FAIR      70  37  30 E14G22    30.15F
LITTLE FALLS   SUNNY     70  36  28 E9G20     30.16F
LITCHFIELD     SUNNY     72  50  46 E17G24    30.14F
BUFFALO        SUNNY     69  44  40 E14G22    30.17F
MAPLE LAKE     SUNNY     72  50  45 SE14      30.17F
$$
MNZ037-044-045-052-053-051900-
   East Central Minnesota

CITY           SKY/WX    TMP DP  RH WIND       PRES   REMARKS
PRINCETON      SUNNY     72  39  30 SE12G23   30.17F
MORA           SUNNY     70  36  28 E13G20    30.21F
CAMBRIDGE      SUNNY     72  46  40 E13G20    30.17F
RUSH CITY      SUNNY     71  35  26 SE8G16    30.19F
MOOSE LAKE     SUNNY     72  34  25 SE7       30.18F
HINCKLEY       FAIR      70  34  26 SE15      30.20F
CLOQUET        SUNNY     68  25  19 E14       30.21F
MCGREGOR       SUNNY     70  32  24 SE16G22   30.19F
$$
MNZ071>073-080-081-089-090-097-098-051900-
   Southwest Minnesota

CITY           SKY/WX    TMP DP  RH WIND       PRES   REMARKS
MONTEVIDEO     PTSUNNY   73  52  46 S22G29    30.10F
GRANITE FALLS  CLOUDY    71  51  48 E18G25    30.11F
CANBY          CLOUDY    71  49  46 SE21G29   30.09F
MARSHALL       PTSUNNY   66  48  52 SE17G23   30.10F
REDWOOD FALLS  CLOUDY    68  50  52 E13G23    30.11F
OLIVIA         MOSUNNY   70  45  40 SE20      30.11F
WORTHINGTON    CLOUDY    57  54  88 SE16      30.12S
JACKSON        CLOUDY    59  54  82 E15       30.13F
TRACY          CLOUDY    66  51  60 E17       30.12S
SLAYTON        CLOUDY    66  52  60 E16       30.11F
$$
MNZ065>067-074>077-082>085-091>093-051900-
   South Central Minnesota

CITY           SKY/WX    TMP DP  RH WIND       PRES   REMARKS
MANKATO        CLOUDY    59  52  77 SE21      30.16F
NEW ULM        CLOUDY    59  52  77 SE13      30.14S
ST JAMES       CLOUDY    63  54  72 E13       30.15S
FAIRMONT       CLOUDY    57  50  77 SE14      30.14S
GLENCOE        PTSUNNY   70  54  56 SE17G25   30.15S
FARIBAULT      CLOUDY    57  52  82 E18G25    30.19F
OWATONNA       PTSUNNY   59  52  77 E21       30.18S
WASECA         CLOUDY    59  52  77 E17G23    30.18F
ALBERT LEA     DRIZZLE   55  52  88 SE16      30.18S
$$
MNZ078>079-086>088-094>096-051900-
   Southeast Minnesota

CITY           SKY/WX    TMP DP  RH WIND       PRES   REMARKS
ROCHESTER      CLOUDY    56  51  84 E20       30.21F
6HR MIN TEMP:  50; 6HR MAX TEMP:  56; 6HR PCP:  0.04;

RED WING       MOSUNNY   66  45  45 SE15      30.19F
STANTON        CLOUDY    63  50  62 SE15      30.18F
DODGE CENTER   CLOUDY    59  52  77 E22       30.19F
WINONA         CLOUDY    59  50  72 SE13      30.24S
AUSTIN         CLOUDY    55  52  88 SE18G25   30.18S
PRESTON        CLOUDY    52  50  92 E10       30.22S
$$
ABBREVIATIONS USED IN REMARKS
   TC - TEMPERATURES IN CELSIUS
  WCI - WIND CHILL INDEX
   HX - HEAT INDEX
  VSB - VISIBILITY
$$


USA.gov is the U.S. government's official web portal to all federal, state and local government web resources and services.